Regional Weather Roundup
Issued by NWS

Home | Current Version | Previous Version | Text Only | Print | Product List | Glossary Off
Versions: 1 2 3 4 5 6 7 8 9 10 11 12 13 14 15 16 17 18 19 20 21 22 23 24 25 26 27 28 29 30 31 32 33 34 35 36 37 38 39 40 41 42 43 44 45 46 47 48 49 50

172
ASUS44 KMEG 222210
RWRTN
TENNESSEE HOURLY STATE WEATHER ROUNDUP
NATIONAL WEATHER SERVICE MEMPHIS TN
400 PM CST WED NOV 22 2017

TNZ002-004-019-021-049-052-054-088>092-222300-
WEST TENNESSEE

CITY           SKY/WX    TMP DP  RH WIND       PRES   REMARKS
MEMPHIS INTL   CLEAR     47  26  44 NW7       30.24S
NWS MEMPHIS      N/A     47 N/A N/A MISG        N/A
JACKSON        CLEAR     47  24  40 N8        30.23S
DYERSBURG      CLEAR     44  25  47 N9        30.27S
SOMERVILLE     CLEAR     46  25  42 N8        30.22S
COVINGTON      CLEAR     45  25  45 N8        30.26R
UNION CITY     CLEAR     45  23  42 N8        30.25S
BOLIVAR        CLEAR     46  23  39 NW8       30.22R
PARIS          CLEAR     43  23  45 N7        30.23S
HUNTINGDON     CLEAR     45  25  45 VRB6      30.22S
LEXINGTON      CLEAR     46  21  36 VRB6      30.22R
SELMER         CLEAR     46  23  39 MISG      30.21R
SAVANNAH       CLEAR     48  25  40 NW5       30.21R HAZE
$$

TNZ008-025-027-028-033-062-065-066-222300-
NORTH MIDDLE TENNESSEE

CITY           SKY/WX    TMP DP  RH WIND       PRES   REMARKS
NASHVILLE      PTCLDY    45  23  42 N10       30.22R
PORTLAND       CLEAR     43  23  45 N7        30.20F
CLARKSVILLE    CLEAR     44  22  41 N12       30.24S
SMYRNA         CLEAR     45  26  47 N8        30.22R
COOKEVILLE     CLEAR     45  25  45 N8        30.16F
GALLATIN       CLEAR     45  25  45 N8        30.23S
CROSSVILLE     CLEAR     44  24  45 N9        30.14F
$$

TNZ061-075-076-078-094-096-097-222300-
SOUTH MIDDLE TENNESSEE

CITY           SKY/WX    TMP DP  RH WIND       PRES   REMARKS
FAYETTEVILLE   CLEAR     46  27  46 N7        30.16R
TULLAHOMA      CLEAR     46  27  46 NW7       30.16R
WINCHESTER     CLEAR     46  27  46 NE8       30.16R
MCMINNVILLE    CLEAR     46  25  42 N9        30.16S
COLUMBIA       CLEAR     48  21  34 N6        30.18R
SHELBYVILLE    CLEAR     45  27  49 N8        30.18S
$$

TNZ017-018-042-046-047-222300-
NORTHEAST TENNESSEE

CITY           SKY/WX    TMP DP  RH WIND       PRES   REMARKS
TRI CITIES     PTCLDY    48  30  49 N6        30.12S
ELIZABETHTON   CLEAR     48  27  43 CALM      30.12S
$$

TNZ012-013-036-069-073-074-222300-
CENTRAL EAST TENNESSEE

CITY           SKY/WX    TMP DP  RH WIND       PRES   REMARKS
KNOXVILLE      NOT AVBL
OAK RIDGE      CLEAR     49  27  42 VRB5      30.16R
DOWNTOWN KNOXV CLEAR     52  30  43 CALM      30.14S
GATLINBURG     CLEAR     52  30  43 N5        30.12S
MORRISTOWN     CLEAR     50  30  46 N6        30.12F
JACKSBORO      CLEAR     45  25  45 NE7       30.20R
$$

TNZ083-085-099-222300-
SOUTHEAST TENNESSEE

CITY           SKY/WX    TMP DP  RH WIND       PRES   REMARKS
CHATTANOOGA    PTCLDY    53  29  39 NE7       30.12R
DAYTON         CLEAR     52  30  43 N9        30.12S
$$

SKY/WX REPORTED AS FAIR MEANS FEW OR NO CLOUDS BELOW
12 THOUSAND FEET.





USA.gov is the U.S. government's official web portal to all federal, state and local government web resources and services.